Mission

  • Our mission is to promote and protect San Carlos Airport and its flight operations, and to enhance the safety and spirit of general aviation through participation in local community activities.

Background

  • The San Carlos Airport Association (SCAPA) has represented pilots and friends of the Airport since our founding in 1986.

Noise Abatement Procedures

  • San Carlos Airport is surrounded by noise sensitive neighborhoods. All pilots are encouraged to follow the noise abatement procedures

Live View of San Carlos Airport (SQL)

San Carlos METAR

  • KSQL 270855Z AUTO 29007KT 10SM OVC012 12/10 A3006 RMK AO2

    A METAR describes the current weather at an airport. Click here to learn how to read a METAR.


SQL Notams

  • Click here and enter KSQL in the Locations box to read the Notices to Airmen (Notams) about San Carlos Airport.

ASOS from Half Moon Bay Airport (HAF)

Chapter

Contact

  • Email: webmaster at sancarlosairport.org
  • twitter
  • Our mailing address:
    San Carlos Airport Association
    P.O. Box 1183
    San Carlos, CA 94070
 

Departure Guidance Document in Airport Office


Printed copies of the KSQL IFR Departure Guidance document are now available in the Airport office.

San Carlos Airport

RUNWAY 30 VFR-to-IFR DEPARTURE GUIDANCE

Click here for 8.5×11 format.

Click here for 5.5×7.5 Jepp format.